date,time,water_lv
2016-07-01,00:00:00,89.61
2016-07-01,00:10:00,89.61
2016-07-01,00:20:00,89.61
2016-07-01,00:30:00,89.61
2016-07-01,00:40:00,89.61
2016-07-01,00:50:00,89.6
2016-07-01,01:00:00,89.6
2016-07-01,01:10:00,89.6
2016-07-01,01:20:00,89.6
2016-07-01,01:30:00,89.6
2016-07-01,01:40:00,89.6
2016-07-01,01:50:00,89.6
2016-07-01,02:00:00,89.6
2016-07-01,02:10:00,89.61
2016-07-01,02:20:00,89.61
2016-07-01,02:30:00,89.61
2016-07-01,02:40:00,89.61
2016-07-01,02:50:00,89.64
2016-07-01,03:00:00,89.67
2016-07-01,03:10:00,89.71
2016-07-01,03:20:00,89.78
2016-07-01,03:30:00,89.84
2016-07-01,03:40:00,89.93
2016-07-01,03:50:00,90.01
2016-07-01,04:00:00,90.09
2016-07-01,04:10:00,90.17
2016-07-01,04:20:00,90.25
2016-07-01,04:30:00,90.32
2016-07-01,04:40:00,90.4
2016-07-01,04:50:00,90.48
2016-07-01,05:00:00,90.54
2016-07-01,05:10:00,90.61
2016-07-01,05:20:00,90.68
2016-07-01,05:30:00,90.74
2016-07-01,05:40:00,90.79
2016-07-01,05:50:00,90.85
2016-07-01,06:00:00,90.91
2016-07-01,06:10:00,90.96
2016-07-01,06:20:00,91.02
2016-07-01,06:30:00,91.09
2016-07-01,06:40:00,91.15
2016-07-01,06:50:00,91.21
2016-07-01,07:00:00,91.27
2016-07-01,07:10:00,91.32
2016-07-01,07:20:00,91.38
2016-07-01,07:30:00,91.44
2016-07-01,07:40:00,91.48
2016-07-01,07:50:00,91.53
2016-07-01,08:00:00,91.57
2016-07-01,08:10:00,91.61
2016-07-01,08:20:00,91.64
2016-07-01,08:30:00,91.68
2016-07-01,08:40:00,91.7
2016-07-01,08:50:00,91.73
2016-07-01,09:00:00,91.76
2016-07-01,09:10:00,91.79
2016-07-01,09:20:00,91.81
2016-07-01,09:30:00,91.83
2016-07-01,09:40:00,91.86
2016-07-01,09:50:00,91.88
2016-07-01,10:00:00,91.9
2016-07-01,10:10:00,91.92
2016-07-01,10:20:00,91.93
2016-07-01,10:30:00,91.95
2016-07-01,10:40:00,91.97
2016-07-01,10:50:00,91.98
2016-07-01,11:00:00,91.99
2016-07-01,11:10:00,92.01
2016-07-01,11:20:00,92.02
2016-07-01,11:30:00,92.03
2016-07-01,11:40:00,92.04
2016-07-01,11:50:00,92.05
2016-07-01,12:00:00,92.06
2016-07-01,12:10:00,92.07
2016-07-01,12:20:00,92.07
2016-07-01,12:30:00,92.08
2016-07-01,12:40:00,92.09
2016-07-01,12:50:00,92.09
2016-07-01,13:00:00,92.09
2016-07-01,13:10:00,92.1
2016-07-01,13:20:00,92.11
2016-07-01,13:30:00,92.11
2016-07-01,13:40:00,92.11
2016-07-01,13:50:00,92.11
2016-07-01,14:00:00,92.12
2016-07-01,14:10:00,92.12
2016-07-01,14:20:00,92.12
2016-07-01,14:30:00,92.12
2016-07-01,14:40:00,92.12
2016-07-01,14:50:00,92.12
2016-07-01,15:00:00,92.12
2016-07-01,15:10:00,92.12
2016-07-01,15:20:00,92.12
2016-07-01,15:30:00,92.12
2016-07-01,15:40:00,92.12
2016-07-01,15:50:00,92.12
2016-07-01,16:00:00,92.12
2016-07-01,16:10:00,92.12
2016-07-01,16:20:00,92.12
2016-07-01,16:30:00,92.12
2016-07-01,16:40:00,92.11
2016-07-01,16:50:00,92.11
2016-07-01,17:00:00,92.11
2016-07-01,17:10:00,92.11
2016-07-01,17:20:00,92.11
2016-07-01,17:30:00,92.11
2016-07-01,17:40:00,92.11
2016-07-01,17:50:00,92.11
2016-07-01,18:00:00,92.11
2016-07-01,18:10:00,92.11
2016-07-01,18:20:00,92.11
2016-07-01,18:30:00,92.12
2016-07-01,18:40:00,92.12
2016-07-01,18:50:00,92.13
2016-07-01,19:00:00,92.13
2016-07-01,19:10:00,92.14
2016-07-01,19:20:00,92.15
2016-07-01,19:30:00,92.16
2016-07-01,19:40:00,92.17
2016-07-01,19:50:00,92.18
2016-07-01,20:00:00,92.19
2016-07-01,20:10:00,92.2
2016-07-01,20:20:00,92.21
2016-07-01,20:30:00,92.21
2016-07-01,20:40:00,92.22
2016-07-01,20:50:00,92.23
2016-07-01,21:00:00,92.24
2016-07-01,21:10:00,92.25
2016-07-01,21:20:00,92.26
2016-07-01,21:30:00,92.27
2016-07-01,21:40:00,92.27
2016-07-01,21:50:00,92.28
2016-07-01,22:00:00,92.28
2016-07-01,22:10:00,92.29
2016-07-01,22:20:00,92.3
2016-07-01,22:30:00,92.3
2016-07-01,22:40:00,92.31
2016-07-01,22:50:00,92.31
2016-07-01,23:00:00,92.31
2016-07-01,23:10:00,92.32
2016-07-01,23:20:00,92.32
2016-07-01,23:30:00,92.33
2016-07-01,23:40:00,92.33
2016-07-01,23:50:00,92.33
2016-07-02,00:00:00,92.34
2016-07-02,00:10:00,92.34
2016-07-02,00:20:00,92.34
2016-07-02,00:30:00,92.35
2016-07-02,00:40:00,92.33
2016-07-02,00:50:00,92.35
2016-07-02,01:00:00,92.34
2016-07-02,01:10:00,92.36
2016-07-02,01:20:00,92.37
2016-07-02,01:30:00,92.37
2016-07-02,01:40:00,92.37
2016-07-02,01:50:00,92.38
2016-07-02,02:00:00,92.38
2016-07-02,02:10:00,92.38
2016-07-02,02:20:00,92.38
2016-07-02,02:30:00,92.38
2016-07-02,02:40:00,92.39
2016-07-02,02:50:00,92.4
2016-07-02,03:00:00,92.39
2016-07-02,03:10:00,92.4
2016-07-02,03:20:00,92.41
2016-07-02,03:30:00,92.41
2016-07-02,03:40:00,92.41
2016-07-02,03:50:00,92.41
2016-07-02,04:00:00,92.41
2016-07-02,04:10:00,92.41
2016-07-02,04:20:00,92.41
2016-07-02,04:30:00,92.42
2016-07-02,04:40:00,92.42
2016-07-02,04:50:00,92.42
2016-07-02,05:00:00,92.42
2016-07-02,05:10:00,92.43
2016-07-02,05:20:00,92.43
2016-07-02,05:30:00,92.43
2016-07-02,05:40:00,92.44
2016-07-02,05:50:00,92.44
2016-07-02,06:00:00,92.45
2016-07-02,06:10:00,92.45
2016-07-02,06:20:00,92.45
2016-07-02,06:30:00,92.45
2016-07-02,06:40:00,92.46
2016-07-02,06:50:00,92.46
2016-07-02,07:00:00,92.47
2016-07-02,07:10:00,92.47
2016-07-02,07:20:00,92.48
2016-07-02,07:30:00,92.49
2016-07-02,07:40:00,92.49
2016-07-02,07:50:00,92.5
2016-07-02,08:00:00,92.51
2016-07-02,08:10:00,92.52
2016-07-02,08:20:00,92.52
2016-07-02,08:30:00,92.53
2016-07-02,08:40:00,92.54
2016-07-02,08:50:00,92.54
2016-07-02,09:00:00,92.55
2016-07-02,09:10:00,92.55
2016-07-02,09:20:00,92.56
2016-07-02,09:30:00,92.56
2016-07-02,09:40:00,92.56
2016-07-02,09:50:00,92.57
2016-07-02,10:00:00,92.57
2016-07-02,10:10:00,92.58
2016-07-02,10:20:00,92.59
2016-07-02,10:30:00,92.59
2016-07-02,10:40:00,92.59
2016-07-02,10:50:00,92.59
2016-07-02,11:00:00,92.59
2016-07-02,11:10:00,92.6
2016-07-02,11:20:00,92.6
2016-07-02,11:30:00,92.6
2016-07-02,11:40:00,92.6
2016-07-02,11:50:00,92.6
2016-07-02,12:00:00,92.6
2016-07-02,12:10:00,92.6
2016-07-02,12:20:00,92.6
2016-07-02,12:30:00,92.6
2016-07-02,12:40:00,92.6
2016-07-02,12:50:00,92.6
2016-07-02,13:00:00,92.6
2016-07-02,13:10:00,92.6
2016-07-02,13:20:00,92.61
2016-07-02,13:30:00,92.61
2016-07-02,13:40:00,92.61
2016-07-02,13:50:00,92.61
2016-07-02,14:00:00,92.61
2016-07-02,14:10:00,92.61
2016-07-02,14:20:00,92.58
2016-07-02,14:30:00,92.61
2016-07-02,14:40:00,92.61
2016-07-02,14:50:00,92.61
2016-07-02,15:00:00,92.61
2016-07-02,15:10:00,92.61
2016-07-02,15:20:00,92.61
2016-07-02,15:30:00,92.6
2016-07-02,15:40:00,92.61
2016-07-02,15:50:00,92.6
2016-07-02,16:00:00,92.6
2016-07-02,16:10:00,92.6
2016-07-02,16:20:00,92.59
2016-07-02,16:30:00,92.59
2016-07-02,16:40:00,92.59
2016-07-02,16:50:00,92.57
2016-07-02,17:00:00,92.57
2016-07-02,17:10:00,92.59
2016-07-02,17:20:00,92.59
2016-07-02,17:30:00,92.58
2016-07-02,17:40:00,92.58
2016-07-02,17:50:00,92.58
2016-07-02,18:00:00,92.58
2016-07-02,18:10:00,92.58
2016-07-02,18:20:00,92.58
2016-07-02,18:30:00,92.58
2016-07-02,18:40:00,92.58
2016-07-02,18:50:00,92.58
2016-07-02,19:00:00,92.56
2016-07-02,19:10:00,92.56
2016-07-02,19:20:00,92.57
2016-07-02,19:30:00,92.55
2016-07-02,19:40:00,92.57
2016-07-02,19:50:00,92.57
2016-07-02,20:00:00,92.58
2016-07-02,20:10:00,92.6
2016-07-02,20:20:00,92.6
2016-07-02,20:30:00,92.6
2016-07-02,20:40:00,92.6
2016-07-02,20:50:00,92.6
2016-07-02,21:00:00,92.61
2016-07-02,21:10:00,92.6
2016-07-02,21:20:00,92.63
2016-07-02,21:30:00,92.62
2016-07-02,21:40:00,92.63
2016-07-02,21:50:00,92.64
2016-07-02,22:00:00,92.64
2016-07-02,22:10:00,92.64
2016-07-02,22:20:00,92.65
2016-07-02,22:30:00,92.66
2016-07-02,22:40:00,92.66
2016-07-02,22:50:00,92.67
2016-07-02,23:00:00,92.68
2016-07-02,23:10:00,92.68
2016-07-02,23:20:00,92.68
2016-07-02,23:30:00,92.71
2016-07-02,23:40:00,92.7
2016-07-02,23:50:00,92.74
2016-07-03,00:00:00,92.75
2016-07-03,00:10:00,92.76
2016-07-03,00:20:00,92.78
2016-07-03,00:30:00,92.8
2016-07-03,00:40:00,92.82
2016-07-03,00:50:00,92.85
2016-07-03,01:00:00,92.87
2016-07-03,01:10:00,92.9
2016-07-03,01:20:00,92.93
2016-07-03,01:30:00,92.96
2016-07-03,01:40:00,92.98
2016-07-03,01:50:00,93
2016-07-03,02:00:00,93.02
2016-07-03,02:10:00,93.04
2016-07-03,02:20:00,93.06
2016-07-03,02:30:00,93.07
2016-07-03,02:40:00,93.09
2016-07-03,02:50:00,93.1
2016-07-03,03:00:00,93.11
2016-07-03,03:10:00,93.13
2016-07-03,03:20:00,93.14
2016-07-03,03:30:00,93.15
2016-07-03,03:40:00,93.16
2016-07-03,03:50:00,93.17
2016-07-03,04:00:00,93.19
2016-07-03,04:10:00,93.19
2016-07-03,04:20:00,93.2
2016-07-03,04:30:00,93.22
2016-07-03,04:40:00,93.22
2016-07-03,04:50:00,93.23
2016-07-03,05:00:00,93.24
2016-07-03,05:10:00,93.25
2016-07-03,05:20:00,93.26
2016-07-03,05:30:00,93.27
2016-07-03,05:40:00,93.28
2016-07-03,05:50:00,93.29
2016-07-03,06:00:00,93.3
2016-07-03,06:10:00,93.31
2016-07-03,06:20:00,93.31
2016-07-03,06:30:00,93.32
2016-07-03,06:40:00,93.33
2016-07-03,06:50:00,93.34
2016-07-03,07:00:00,93.35
2016-07-03,07:10:00,93.36
2016-07-03,07:20:00,93.37
2016-07-03,07:30:00,93.37
2016-07-03,07:40:00,93.38
2016-07-03,07:50:00,93.39
2016-07-03,08:00:00,93.4
2016-07-03,08:10:00,93.41
2016-07-03,08:20:00,93.41
2016-07-03,08:30:00,93.42
2016-07-03,08:40:00,93.43
2016-07-03,08:50:00,93.44
2016-07-03,09:00:00,93.45
2016-07-03,09:10:00,93.45
2016-07-03,09:20:00,93.46
2016-07-03,09:30:00,93.46
2016-07-03,09:40:00,93.47
2016-07-03,09:50:00,93.47
2016-07-03,10:00:00,93.48
2016-07-03,10:10:00,93.49
2016-07-03,10:20:00,-
2016-07-03,10:30:00,93.5
2016-07-03,10:40:00,-
2016-07-03,10:50:00,-
2016-07-03,11:00:00,-
2016-07-03,11:10:00,-
2016-07-03,11:20:00,93.53
2016-07-03,11:30:00,93.54
2016-07-03,11:40:00,93.55
2016-07-03,11:50:00,93.55
2016-07-03,12:00:00,93.55
2016-07-03,12:10:00,93.56
2016-07-03,12:20:00,-
2016-07-03,12:30:00,93.58
2016-07-03,12:40:00,93.59
2016-07-03,12:50:00,93.59
2016-07-03,13:00:00,93.6
2016-07-03,13:10:00,93.61
2016-07-03,13:20:00,93.61
2016-07-03,13:30:00,93.61
2016-07-03,13:40:00,93.63
2016-07-03,13:50:00,93.63
2016-07-03,14:00:00,93.64
2016-07-03,14:10:00,93.65
2016-07-03,14:20:00,93.65
2016-07-03,14:30:00,93.65
2016-07-03,14:40:00,93.65
2016-07-03,14:50:00,93.66
2016-07-03,15:00:00,93.67
2016-07-03,15:10:00,93.67
2016-07-03,15:20:00,93.68
2016-07-03,15:30:00,93.68
2016-07-03,15:40:00,93.68
2016-07-03,15:50:00,93.68
2016-07-03,16:00:00,93.69
2016-07-03,16:10:00,93.69
2016-07-03,16:20:00,93.69
2016-07-03,16:30:00,93.7
2016-07-03,16:40:00,93.7
2016-07-03,16:50:00,93.7
2016-07-03,17:00:00,93.71
2016-07-03,17:10:00,93.71
2016-07-03,17:20:00,93.71
2016-07-03,17:30:00,93.71
2016-07-03,17:40:00,93.72
2016-07-03,17:50:00,93.72
2016-07-03,18:00:00,93.72
2016-07-03,18:10:00,93.72
2016-07-03,18:20:00,93.73
2016-07-03,18:30:00,93.73
2016-07-03,18:40:00,93.73
2016-07-03,18:50:00,93.73
2016-07-03,19:00:00,93.73
2016-07-03,19:10:00,93.73
2016-07-03,19:20:00,93.74
2016-07-03,19:30:00,93.74
2016-07-03,19:40:00,93.74
2016-07-03,19:50:00,93.74
2016-07-03,20:00:00,93.74
2016-07-03,20:10:00,93.74
2016-07-03,20:20:00,93.74
2016-07-03,20:30:00,93.74
2016-07-03,20:40:00,93.74
2016-07-03,20:50:00,93.75
2016-07-03,21:00:00,93.75
2016-07-03,21:10:00,93.75
2016-07-03,21:20:00,93.75
2016-07-03,21:30:00,93.75
2016-07-03,21:40:00,93.75
2016-07-03,21:50:00,93.76
2016-07-03,22:00:00,93.76
2016-07-03,22:10:00,93.76
2016-07-03,22:20:00,93.76
2016-07-03,22:30:00,93.76
2016-07-03,22:40:00,93.76
2016-07-03,22:50:00,93.75
2016-07-03,23:00:00,93.75
2016-07-03,23:10:00,93.77
2016-07-03,23:20:00,93.79
2016-07-03,23:30:00,93.79
2016-07-03,23:40:00,93.8
2016-07-03,23:50:00,93.81
2016-07-04,00:00:00,93.81
2016-07-04,00:10:00,93.82
2016-07-04,00:20:00,93.82
2016-07-04,00:30:00,93.82
2016-07-04,00:40:00,93.82
2016-07-04,00:50:00,93.82
2016-07-04,01:00:00,93.82
2016-07-04,01:10:00,93.82
2016-07-04,01:20:00,93.83
2016-07-04,01:30:00,93.82
2016-07-04,01:40:00,93.82
2016-07-04,01:50:00,93.83
2016-07-04,02:00:00,93.83
2016-07-04,02:10:00,93.84
2016-07-04,02:20:00,93.83
2016-07-04,02:30:00,93.84
2016-07-04,02:40:00,93.84
2016-07-04,02:50:00,93.85
2016-07-04,03:00:00,93.85
2016-07-04,03:10:00,93.86
2016-07-04,03:20:00,93.86
2016-07-04,03:30:00,93.87
2016-07-04,03:40:00,93.87
2016-07-04,03:50:00,93.88
2016-07-04,04:00:00,93.88
2016-07-04,04:10:00,93.88
2016-07-04,04:20:00,93.88
2016-07-04,04:30:00,93.89
2016-07-04,04:40:00,93.89
2016-07-04,04:50:00,93.9
2016-07-04,05:00:00,93.9
2016-07-04,05:10:00,93.91
2016-07-04,05:20:00,93.91
2016-07-04,05:30:00,93.91
2016-07-04,05:40:00,93.92
2016-07-04,05:50:00,93.92
2016-07-04,06:00:00,93.92
2016-07-04,06:10:00,93.93
2016-07-04,06:20:00,93.93
2016-07-04,06:30:00,93.93
2016-07-04,06:40:00,93.93
2016-07-04,06:50:00,93.94
2016-07-04,07:00:00,93.94
2016-07-04,07:10:00,93.94
2016-07-04,07:20:00,93.94
2016-07-04,07:30:00,93.94
2016-07-04,07:40:00,93.95
2016-07-04,07:50:00,93.95
2016-07-04,08:00:00,93.95
2016-07-04,08:10:00,93.95
2016-07-04,08:20:00,93.95
2016-07-04,08:30:00,93.95
2016-07-04,08:40:00,93.96
2016-07-04,08:50:00,93.96
2016-07-04,09:00:00,93.96
2016-07-04,09:10:00,93.96
2016-07-04,09:20:00,93.96
2016-07-04,09:30:00,93.96
2016-07-04,09:40:00,93.96
2016-07-04,09:50:00,93.96
2016-07-04,10:00:00,93.96
2016-07-04,10:10:00,93.96
2016-07-04,10:20:00,93.96
2016-07-04,10:30:00,93.96
2016-07-04,10:40:00,93.96
2016-07-04,10:50:00,93.95
2016-07-04,11:00:00,93.95
2016-07-04,11:10:00,93.95
2016-07-04,11:20:00,93.95
2016-07-04,11:30:00,93.95
2016-07-04,11:40:00,93.95
2016-07-04,11:50:00,93.95
2016-07-04,12:00:00,93.95
2016-07-04,12:10:00,93.94
2016-07-04,12:20:00,93.94
2016-07-04,12:30:00,93.94
2016-07-04,12:40:00,93.94
2016-07-04,12:50:00,93.94
2016-07-04,13:00:00,93.93
2016-07-04,13:10:00,93.93
2016-07-04,13:20:00,93.94
2016-07-04,13:30:00,93.93
2016-07-04,13:40:00,93.93
2016-07-04,13:50:00,93.93
2016-07-04,14:00:00,93.93
2016-07-04,14:10:00,93.92
2016-07-04,14:20:00,93.92
2016-07-04,14:30:00,93.92
2016-07-04,14:40:00,93.91
2016-07-04,14:50:00,93.91
2016-07-04,15:00:00,93.91
2016-07-04,15:10:00,93.91
2016-07-04,15:20:00,93.91
2016-07-04,15:30:00,93.9
2016-07-04,15:40:00,93.9
2016-07-04,15:50:00,93.89
2016-07-04,16:00:00,93.89
2016-07-04,16:10:00,93.89
2016-07-04,16:20:00,93.89
2016-07-04,16:30:00,93.88
2016-07-04,16:40:00,93.88
2016-07-04,16:50:00,93.88
2016-07-04,17:00:00,93.87
2016-07-04,17:10:00,93.87
2016-07-04,17:20:00,93.86
2016-07-04,17:30:00,93.86
2016-07-04,17:40:00,93.86
2016-07-04,17:50:00,93.85
2016-07-04,18:00:00,93.85
2016-07-04,18:10:00,93.85
2016-07-04,18:20:00,93.84
2016-07-04,18:30:00,93.84
2016-07-04,18:40:00,93.84
2016-07-04,18:50:00,93.83
2016-07-04,19:00:00,93.83
2016-07-04,19:10:00,93.83
2016-07-04,19:20:00,93.82
2016-07-04,19:30:00,93.82
2016-07-04,19:40:00,93.82
2016-07-04,19:50:00,93.81
2016-07-04,20:00:00,93.81
2016-07-04,20:10:00,93.8
2016-07-04,20:20:00,93.8
2016-07-04,20:30:00,93.79
2016-07-04,20:40:00,93.79
2016-07-04,20:50:00,93.79
2016-07-04,21:00:00,93.79
2016-07-04,21:10:00,93.78
2016-07-04,21:20:00,93.78
2016-07-04,21:30:00,93.77
2016-07-04,21:40:00,93.77
2016-07-04,21:50:00,93.76
2016-07-04,22:00:00,93.76
2016-07-04,22:10:00,93.76
2016-07-04,22:20:00,93.75
2016-07-04,22:30:00,93.75
2016-07-04,22:40:00,93.75
2016-07-04,22:50:00,93.74
2016-07-04,23:00:00,93.74
2016-07-04,23:10:00,93.73
2016-07-04,23:20:00,93.73
2016-07-04,23:30:00,93.73
2016-07-04,23:40:00,93.72
2016-07-04,23:50:00,93.72
2016-07-05,00:00:00,93.72
2016-07-05,00:10:00,93.71
2016-07-05,00:20:00,93.71
2016-07-05,00:30:00,93.7
2016-07-05,00:40:00,93.7
2016-07-05,00:50:00,93.69
2016-07-05,01:00:00,93.69
2016-07-05,01:10:00,93.69
2016-07-05,01:20:00,93.68
2016-07-05,01:30:00,93.68
2016-07-05,01:40:00,93.67
2016-07-05,01:50:00,93.67
2016-07-05,02:00:00,93.66
2016-07-05,02:10:00,93.66
2016-07-05,02:20:00,93.66
2016-07-05,02:30:00,93.65
2016-07-05,02:40:00,93.65
2016-07-05,02:50:00,93.64
2016-07-05,03:00:00,93.64
2016-07-05,03:10:00,93.63
2016-07-05,03:20:00,93.63
2016-07-05,03:30:00,93.63
2016-07-05,03:40:00,93.62
2016-07-05,03:50:00,93.62
2016-07-05,04:00:00,93.61
2016-07-05,04:10:00,93.61
2016-07-05,04:20:00,93.6
2016-07-05,04:30:00,93.6
2016-07-05,04:40:00,93.59
2016-07-05,04:50:00,93.59
2016-07-05,05:00:00,93.59
2016-07-05,05:10:00,93.58
2016-07-05,05:20:00,93.58
2016-07-05,05:30:00,93.57
2016-07-05,05:40:00,93.56
2016-07-05,05:50:00,93.56
2016-07-05,06:00:00,93.56
2016-07-05,06:10:00,93.55
2016-07-05,06:20:00,93.55
2016-07-05,06:30:00,93.54
2016-07-05,06:40:00,93.54
2016-07-05,06:50:00,93.53
2016-07-05,07:00:00,93.53
2016-07-05,07:10:00,93.53
2016-07-05,07:20:00,93.52
2016-07-05,07:30:00,93.51
2016-07-05,07:40:00,93.51
2016-07-05,07:50:00,93.51
2016-07-05,08:00:00,93.5
2016-07-05,08:10:00,93.5
2016-07-05,08:20:00,93.5
2016-07-05,08:30:00,93.49
2016-07-05,08:40:00,93.49
2016-07-05,08:50:00,93.48
2016-07-05,09:00:00,93.48
2016-07-05,09:10:00,93.47
2016-07-05,09:20:00,93.47
2016-07-05,09:30:00,93.46
2016-07-05,09:40:00,93.46
2016-07-05,09:50:00,93.46
2016-07-05,10:00:00,93.45
2016-07-05,10:10:00,93.45
2016-07-05,10:20:00,93.44
2016-07-05,10:30:00,93.44
2016-07-05,10:40:00,93.43
2016-07-05,10:50:00,93.43
2016-07-05,11:00:00,93.42
2016-07-05,11:10:00,93.42
2016-07-05,11:20:00,93.42
2016-07-05,11:30:00,93.41
2016-07-05,11:40:00,93.41
2016-07-05,11:50:00,93.4
2016-07-05,12:00:00,93.4
2016-07-05,12:10:00,93.39
2016-07-05,12:20:00,93.38
2016-07-05,12:30:00,93.38
2016-07-05,12:40:00,93.38
2016-07-05,12:50:00,93.37
2016-07-05,13:00:00,93.36
2016-07-05,13:10:00,93.36
2016-07-05,13:20:00,93.36
2016-07-05,13:30:00,93.35
2016-07-05,13:40:00,93.35
2016-07-05,13:50:00,93.34
2016-07-05,14:00:00,93.34
2016-07-05,14:10:00,93.33
2016-07-05,14:20:00,93.33
2016-07-05,14:30:00,93.32
2016-07-05,14:40:00,93.31
2016-07-05,14:50:00,93.31
2016-07-05,15:00:00,93.3
2016-07-05,15:10:00,93.3
2016-07-05,15:20:00,93.3
2016-07-05,15:30:00,93.3
2016-07-05,15:40:00,93.29
2016-07-05,15:50:00,93.29
2016-07-05,16:00:00,93.28
2016-07-05,16:10:00,93.28
2016-07-05,16:20:00,93.27
2016-07-05,16:30:00,93.26
2016-07-05,16:40:00,93.26
2016-07-05,16:50:00,93.25
2016-07-05,17:00:00,93.25
2016-07-05,17:10:00,93.25
2016-07-05,17:20:00,93.24
2016-07-05,17:30:00,93.24
2016-07-05,17:40:00,93.24
2016-07-05,17:50:00,93.23
2016-07-05,18:00:00,93.23
2016-07-05,18:10:00,93.22
2016-07-05,18:20:00,93.22
2016-07-05,18:30:00,93.21
2016-07-05,18:40:00,93.21
2016-07-05,18:50:00,93.21
2016-07-05,19:00:00,93.2
2016-07-05,19:10:00,93.2
2016-07-05,19:20:00,93.19
2016-07-05,19:30:00,93.19
2016-07-05,19:40:00,93.19
2016-07-05,19:50:00,93.18
2016-07-05,20:00:00,93.18
2016-07-05,20:10:00,93.17
2016-07-05,20:20:00,93.17
2016-07-05,20:30:00,93.16
2016-07-05,20:40:00,93.16
2016-07-05,20:50:00,93.16
2016-07-05,21:00:00,93.15
2016-07-05,21:10:00,93.15
2016-07-05,21:20:00,93.14
2016-07-05,21:30:00,93.14
2016-07-05,21:40:00,93.14
2016-07-05,21:50:00,93.13
2016-07-05,22:00:00,93.13
2016-07-05,22:10:00,93.13
2016-07-05,22:20:00,93.12
2016-07-05,22:30:00,93.12
2016-07-05,22:40:00,93.11
2016-07-05,22:50:00,93.11
2016-07-05,23:00:00,93.11
2016-07-05,23:10:00,93.1
2016-07-05,23:20:00,93.1
2016-07-05,23:30:00,93.09
2016-07-05,23:40:00,93.09
2016-07-05,23:50:00,93.09
2016-07-06,00:00:00,93.08
2016-07-06,00:10:00,93.08
2016-07-06,00:20:00,93.08
2016-07-06,00:30:00,93.07
2016-07-06,00:40:00,93.07
2016-07-06,00:50:00,93.07
2016-07-06,01:00:00,93.06
2016-07-06,01:10:00,93.06
2016-07-06,01:20:00,93.06
2016-07-06,01:30:00,93.05
2016-07-06,01:40:00,93.05
2016-07-06,01:50:00,93.05
2016-07-06,02:00:00,93.04
2016-07-06,02:10:00,93.04
2016-07-06,02:20:00,93.04
2016-07-06,02:30:00,93.03
2016-07-06,02:40:00,93.03
2016-07-06,02:50:00,93.03
2016-07-06,03:00:00,93.02
2016-07-06,03:10:00,93.02
2016-07-06,03:20:00,93.02
2016-07-06,03:30:00,93.02
2016-07-06,03:40:00,93.01
2016-07-06,03:50:00,93.01
2016-07-06,04:00:00,93.01
2016-07-06,04:10:00,93.01
2016-07-06,04:20:00,93
2016-07-06,04:30:00,93
2016-07-06,04:40:00,93
2016-07-06,04:50:00,92.99
2016-07-06,05:00:00,92.99
2016-07-06,05:10:00,92.99
2016-07-06,05:20:00,92.99
2016-07-06,05:30:00,92.99
2016-07-06,05:40:00,92.99
2016-07-06,05:50:00,92.98
2016-07-06,06:00:00,92.98
2016-07-06,06:10:00,92.98
2016-07-06,06:20:00,92.98
2016-07-06,06:30:00,92.98
2016-07-06,06:40:00,92.97
2016-07-06,06:50:00,92.97
2016-07-06,07:00:00,92.97
2016-07-06,07:10:00,92.97
2016-07-06,07:20:00,92.97
2016-07-06,07:30:00,92.97
2016-07-06,07:40:00,92.96
2016-07-06,07:50:00,92.96
2016-07-06,08:00:00,92.95
2016-07-06,08:10:00,92.96
2016-07-06,08:20:00,92.96
2016-07-06,08:30:00,92.95
2016-07-06,08:40:00,92.95
2016-07-06,08:50:00,92.95
2016-07-06,09:00:00,92.95
2016-07-06,09:10:00,92.94
2016-07-06,09:20:00,92.95
2016-07-06,09:30:00,92.96
2016-07-06,09:40:00,92.96
2016-07-06,09:50:00,92.95
2016-07-06,10:00:00,92.95
2016-07-06,10:10:00,92.94
2016-07-06,10:20:00,92.96
2016-07-06,10:30:00,92.95
2016-07-06,10:40:00,92.95
2016-07-06,10:50:00,92.96
2016-07-06,11:00:00,92.95
2016-07-06,11:10:00,92.95
2016-07-06,11:20:00,92.95
2016-07-06,11:30:00,92.95
2016-07-06,11:40:00,92.95
2016-07-06,11:50:00,92.95
2016-07-06,12:00:00,92.95
2016-07-06,12:10:00,92.96
2016-07-06,12:20:00,92.96
2016-07-06,12:30:00,92.97
2016-07-06,12:40:00,92.97
2016-07-06,12:50:00,92.97
2016-07-06,13:00:00,92.98
2016-07-06,13:10:00,92.96
2016-07-06,13:20:00,92.99
2016-07-06,13:30:00,93
2016-07-06,13:40:00,93
2016-07-06,13:50:00,93
2016-07-06,14:00:00,93
2016-07-06,14:10:00,93.01
2016-07-06,14:20:00,-
2016-07-06,14:30:00,-
2016-07-06,14:40:00,-
2016-07-06,14:50:00,-
2016-07-06,15:00:00,93.02
2016-07-06,15:10:00,93.02
2016-07-06,15:20:00,93.02
2016-07-06,15:30:00,93.02
2016-07-06,15:40:00,93.03
2016-07-06,15:50:00,93.03
2016-07-06,16:00:00,93.04
2016-07-06,16:10:00,93.05
2016-07-06,16:20:00,93.05
2016-07-06,16:30:00,93.07
2016-07-06,16:40:00,93.09
2016-07-06,16:50:00,93.1
2016-07-06,17:00:00,93.11
2016-07-06,17:10:00,93.12
2016-07-06,17:20:00,93.14
2016-07-06,17:30:00,93.16
2016-07-06,17:40:00,93.17
2016-07-06,17:50:00,93.18
2016-07-06,18:00:00,93.2
2016-07-06,18:10:00,93.22
2016-07-06,18:20:00,93.22
2016-07-06,18:30:00,93.24
2016-07-06,18:40:00,93.25
2016-07-06,18:50:00,93.26
2016-07-06,19:00:00,93.27
2016-07-06,19:10:00,93.28
2016-07-06,19:20:00,93.29
2016-07-06,19:30:00,93.3
2016-07-06,19:40:00,93.31
2016-07-06,19:50:00,93.32
2016-07-06,20:00:00,93.33
2016-07-06,20:10:00,93.33
2016-07-06,20:20:00,93.34
2016-07-06,20:30:00,93.35
2016-07-06,20:40:00,93.36
2016-07-06,20:50:00,93.36
2016-07-06,21:00:00,93.37
2016-07-06,21:10:00,93.38
2016-07-06,21:20:00,93.38
2016-07-06,21:30:00,93.39
2016-07-06,21:40:00,93.4
2016-07-06,21:50:00,93.4
2016-07-06,22:00:00,93.41
2016-07-06,22:10:00,93.41
2016-07-06,22:20:00,93.42
2016-07-06,22:30:00,93.43
2016-07-06,22:40:00,93.43
2016-07-06,22:50:00,93.44
2016-07-06,23:00:00,93.44
2016-07-06,23:10:00,93.45
2016-07-06,23:20:00,93.45
2016-07-06,23:30:00,93.46
2016-07-06,23:40:00,93.46
2016-07-06,23:50:00,93.47
2016-07-07,00:00:00,93.47
2016-07-07,00:10:00,93.48
2016-07-07,00:20:00,93.48
2016-07-07,00:30:00,93.47
2016-07-07,00:40:00,93.49
2016-07-07,00:50:00,93.48
2016-07-07,01:00:00,93.5
2016-07-07,01:10:00,93.49
2016-07-07,01:20:00,93.5
2016-07-07,01:30:00,93.51
2016-07-07,01:40:00,93.51
2016-07-07,01:50:00,93.51
2016-07-07,02:00:00,93.52
2016-07-07,02:10:00,93.52
2016-07-07,02:20:00,93.52
2016-07-07,02:30:00,93.53
2016-07-07,02:40:00,93.53
2016-07-07,02:50:00,93.53
2016-07-07,03:00:00,93.53
2016-07-07,03:10:00,93.54
2016-07-07,03:20:00,93.54
2016-07-07,03:30:00,93.53
2016-07-07,03:40:00,93.54
2016-07-07,03:50:00,93.54
2016-07-07,04:00:00,93.54
2016-07-07,04:10:00,93.54
2016-07-07,04:20:00,93.54
2016-07-07,04:30:00,93.55
2016-07-07,04:40:00,93.54
2016-07-07,04:50:00,93.54
2016-07-07,05:00:00,93.54
2016-07-07,05:10:00,93.54
2016-07-07,05:20:00,93.54
2016-07-07,05:30:00,93.54
2016-07-07,05:40:00,93.54
2016-07-07,05:50:00,93.53
2016-07-07,06:00:00,93.54
2016-07-07,06:10:00,93.54
2016-07-07,06:20:00,93.54
2016-07-07,06:30:00,93.53
2016-07-07,06:40:00,93.54
2016-07-07,06:50:00,93.53
2016-07-07,07:00:00,93.53
2016-07-07,07:10:00,93.53
2016-07-07,07:20:00,93.53
2016-07-07,07:30:00,93.53
2016-07-07,07:40:00,93.53
2016-07-07,07:50:00,93.52
2016-07-07,08:00:00,93.54
2016-07-07,08:10:00,93.53
2016-07-07,08:20:00,93.54
2016-07-07,08:30:00,93.54
2016-07-07,08:40:00,93.53
2016-07-07,08:50:00,93.54
2016-07-07,09:00:00,93.53
2016-07-07,09:10:00,93.54
2016-07-07,09:20:00,93.54
2016-07-07,09:30:00,93.54
2016-07-07,09:40:00,93.54
2016-07-07,09:50:00,93.54
2016-07-07,10:00:00,93.54
2016-07-07,10:10:00,93.54
2016-07-07,10:20:00,93.54
2016-07-07,10:30:00,93.54